Date String (YYYY-MM-DD hh:mm:ss) UTC,Instrument flags,Ambient pressure (hPa),Sample flow (lpm),Bypass flow (lpm),Sample temperature (°C),Ambient temperature (°C),ASC tube jacket temperature (°C),LED temperature (°C),Box temperature (°C),Sample RH (%),Span deviation,Mass concentration (μg/m³),Mass concentration (μg/m³),Mass concentration (μg/m³)
DateTimeUTC,F1_M11,P_M11,Q1_M11,Q2_M11,T1_M11,T2_M11,T3_M11,T4_M11,T5_M11,U1_M11,ZSPAN_M11,X2_M11,X0_M11,X1_M11
2022-05-14 11:00:00,,0827.0,4.99,0.00,28.4,27.5,00.0,37.5,30.0,07.5,0000.0,0003.15,0009.05,0001.73
2022-05-14 11:01:00,,0827.0,5.01,0.00,28.4,27.4,00.0,37.5,30.0,07.5,0000.0,0003.15,0009.06,0001.73
2022-05-14 11:02:00,,0827.0,5.00,0.00,28.4,27.4,00.0,37.5,30.0,07.6,0000.0,0003.16,0009.06,0001.74
2022-05-14 11:03:00,,0827.0,5.01,0.00,28.4,27.4,00.0,37.5,30.1,07.6,0000.0,0003.12,0008.90,0001.76
2022-05-14 11:04:00,,0827.1,5.00,0.00,28.4,27.4,00.0,37.5,30.1,07.6,0000.0,0003.14,0008.82,0001.77
2022-05-14 11:05:00,,0827.2,4.98,0.00,28.4,27.4,00.0,37.5,30.0,07.6,0000.0,0003.18,0008.49,0001.76
2022-05-14 11:06:00,,0827.2,5.00,0.00,28.4,27.4,00.0,37.5,30.1,07.6,0000.0,0003.20,0008.50,0001.76
2022-05-14 11:07:00,,0827.3,5.00,0.00,28.4,27.4,00.0,37.5,30.1,07.6,0000.0,0003.19,0008.19,0001.75
2022-05-14 11:08:00,,0827.2,5.01,0.00,28.4,27.4,00.0,37.5,30.1,07.6,0000.0,0003.20,0007.95,0001.73
2022-05-14 11:09:00,,0827.3,5.00,0.00,28.4,27.4,00.0,37.5,30.1,07.7,0000.0,0003.19,0007.76,0001.71
2022-05-14 11:10:00,,0827.3,5.00,0.00,28.4,27.4,00.0,37.5,30.1,07.7,0000.0,0003.15,0007.58,0001.70
2022-05-14 11:11:00,,0827.3,5.02,0.00,28.4,27.4,00.0,37.4,30.1,07.6,0000.0,0003.10,0006.61,0001.69
2022-05-14 11:12:00,,0827.4,4.99,0.00,28.4,27.5,00.0,37.4,30.2,07.6,0000.0,0003.10,0006.59,0001.69
2022-05-14 11:13:00,,0827.4,5.01,0.00,28.5,27.5,00.0,37.5,30.2,07.7,0000.0,0003.12,0006.95,0001.68
2022-05-14 11:14:00,,0827.4,5.01,0.00,28.5,27.5,00.0,37.5,30.2,07.7,0000.0,0003.14,0007.17,0001.67
2022-05-14 11:15:00,,0827.4,5.00,0.00,28.5,27.5,00.0,37.5,30.2,07.6,0000.0,0003.16,0007.53,0001.68
2022-05-14 11:16:00,,0827.4,4.99,0.00,28.5,27.5,00.0,37.5,30.2,07.6,0000.0,0003.19,0007.81,0001.68
2022-05-14 11:17:00,,0827.5,5.01,0.00,28.5,27.5,00.0,37.5,30.3,07.6,0000.0,0003.22,0007.96,0001.70
2022-05-14 11:18:00,,0827.5,5.01,0.00,28.5,27.6,00.0,37.5,30.3,07.7,0000.0,0003.23,0008.00,0001.69
2022-05-14 11:19:00,,0827.5,4.98,0.00,28.5,27.6,00.0,37.5,30.3,07.6,0000.0,0003.23,0007.99,0001.70
2022-05-14 11:20:00,,0827.5,5.01,0.00,28.6,27.7,00.0,37.5,30.4,07.6,0000.0,0003.25,0008.11,0001.72
2022-05-14 11:21:00,,0827.5,4.99,0.00,28.6,27.7,00.0,37.5,30.4,07.5,0000.0,0003.26,0008.22,0001.73
2022-05-14 11:22:00,,0827.5,4.99,0.00,28.6,27.7,00.0,37.5,30.4,07.3,0000.0,0003.26,0008.23,0001.73
2022-05-14 11:23:00,,0827.5,5.00,0.00,28.6,27.7,00.0,37.5,30.4,07.4,0000.0,0003.26,0008.16,0001.73
2022-05-14 11:24:00,,0827.5,5.00,0.00,28.6,27.8,00.0,37.5,30.4,07.4,0000.0,0003.23,0007.99,0001.73
2022-05-14 11:25:00,,0827.5,5.01,0.00,28.6,27.8,00.0,37.5,30.5,07.4,0000.0,0003.22,0008.00,0001.73
2022-05-14 11:26:00,,0827.4,5.00,0.00,28.7,27.8,00.0,37.5,30.4,07.4,0000.0,0003.19,0007.61,0001.72
2022-05-14 11:27:00,,0827.4,5.01,0.00,28.7,27.8,00.0,37.5,30.4,07.3,0000.0,0003.16,0007.29,0001.71
2022-05-14 11:28:00,,0827.4,4.99,0.00,28.7,27.8,00.0,37.6,30.5,07.3,0000.0,0003.08,0006.89,0001.70
2022-05-14 11:29:00,,0827.4,5.00,0.00,28.7,27.8,00.0,37.6,30.5,07.3,0000.0,0003.06,0007.68,0001.72
2022-05-14 11:30:00,,0827.4,5.01,0.00,28.7,27.8,00.0,37.6,30.5,07.3,0000.0,0003.03,0007.66,0001.73
2022-05-14 11:31:00,,0827.4,5.00,0.00,28.7,27.9,00.0,37.6,30.5,07.3,0000.0,0002.98,0007.36,0001.72
2022-05-14 11:32:00,,0827.5,4.99,0.00,28.7,27.9,00.0,37.6,30.5,07.3,0000.0,0002.95,0007.10,0001.72
2022-05-14 11:33:00,,0827.5,5.00,0.00,28.7,27.9,00.0,37.6,30.5,07.3,0000.0,0002.96,0007.06,0001.71
2022-05-14 11:34:00,,0827.5,5.00,0.00,28.7,27.9,00.0,37.6,30.5,07.3,0000.0,0002.97,0007.11,0001.72
2022-05-14 11:35:00,,0827.5,5.00,0.00,28.8,27.9,00.0,37.6,30.5,07.4,0000.0,0002.96,0007.05,0001.71
2022-05-14 11:36:00,,0827.4,5.00,0.00,28.8,27.9,00.0,37.6,30.6,07.3,0000.0,0002.96,0007.19,0001.72
2022-05-14 11:37:00,,0827.6,4.99,0.00,28.8,27.9,00.0,37.6,30.6,07.4,0000.0,0002.98,0007.26,0001.72
2022-05-14 11:38:00,,0827.6,5.00,0.00,28.8,27.9,00.0,37.6,30.5,07.4,0000.0,0003.00,0007.31,0001.74
2022-05-14 11:39:00,,0827.5,5.00,0.00,28.8,27.9,00.0,37.7,30.6,07.3,0000.0,0003.02,0007.23,0001.73
2022-05-14 11:40:00,,0827.5,5.00,0.00,28.8,27.9,00.0,37.7,30.6,07.3,0000.0,0002.99,0005.96,0001.72
2022-05-14 11:41:00,,0827.5,5.01,0.00,28.8,27.9,00.0,37.7,30.6,07.3,0000.0,0002.97,0005.86,0001.71
2022-05-14 11:42:00,,0827.6,5.00,0.00,28.8,27.9,00.0,37.7,30.5,07.2,0000.0,0003.02,0007.43,0001.71
2022-05-14 11:43:00,,0827.6,5.01,0.00,28.8,27.9,00.0,37.7,30.6,07.2,0000.0,0003.10,0007.62,0001.71
2022-05-14 11:44:00,,0827.7,5.01,0.00,28.8,27.9,00.0,37.7,30.6,07.3,0000.0,0003.15,0008.22,0001.72
2022-05-14 11:45:00,,0827.7,4.99,0.00,28.8,28.0,00.0,37.7,30.6,07.1,0000.0,0003.16,0008.40,0001.73
2022-05-14 11:46:00,,0827.6,5.00,0.00,28.8,28.0,00.0,37.7,30.6,07.0,0000.0,0003.19,0008.44,0001.73
2022-05-14 11:47:00,,0827.7,4.99,0.00,28.8,28.0,00.0,37.7,30.6,07.2,0000.0,0003.19,0008.70,0001.72
2022-05-14 11:48:00,,0827.7,5.01,0.00,28.8,28.0,00.0,37.7,30.6,07.2,0000.0,0003.22,0009.31,0001.74
2022-05-14 11:49:00,,0827.7,5.00,0.00,28.8,28.0,00.0,37.7,30.6,07.3,0000.0,0003.19,0009.26,0001.71
2022-05-14 11:50:00,,0827.7,4.98,0.00,28.9,28.0,00.0,37.7,30.6,07.3,0000.0,0003.17,0009.22,0001.71
2022-05-14 11:51:00,,0827.7,5.01,0.00,28.9,28.0,00.0,37.7,30.6,07.2,0000.0,0003.14,0009.17,0001.70
2022-05-14 11:52:00,,0827.7,5.00,0.00,28.9,28.0,00.0,37.8,30.7,07.2,0000.0,0003.15,0009.18,0001.71
2022-05-14 11:53:00,,0827.7,4.99,0.00,28.9,28.0,00.0,37.8,30.6,07.2,0000.0,0003.15,0008.60,0001.72
2022-05-14 11:54:00,,0827.7,5.00,0.00,28.9,28.0,00.0,37.8,30.6,07.2,0000.0,0003.16,0008.37,0001.72
2022-05-14 11:55:00,,0827.7,5.01,0.00,28.9,28.0,00.0,37.8,30.7,07.2,0000.0,0003.11,0007.92,0001.72
2022-05-14 11:56:00,,0827.7,4.99,0.00,28.9,28.0,00.0,37.8,30.7,07.2,0000.0,0003.05,0007.55,0001.70
2022-05-14 11:57:00,,0827.7,5.01,0.00,28.9,28.0,00.0,37.8,30.7,07.2,0000.0,0003.02,0007.55,0001.71
2022-05-14 11:58:00,,0827.7,4.99,0.00,28.9,28.0,00.0,37.8,30.7,07.4,0000.0,0003.06,0006.91,0001.72
2022-05-14 11:59:00,,0827.7,5.01,0.00,28.9,28.0,00.0,37.8,30.7,07.3,0000.0,0003.05,0006.07,0001.71
